EW2964 Weather Reports


Display with metric or nautical units.
time (UTC)temp
F
wind
direction
speed
MPH
gust
MPH
rain 1hr
in
rain 24hr
in
rain mn
in
humidity
%
barometer
mb
20260504050508 42 275 0.0 4.0 0.00 0.00 0.00 74 1016.0
20260504050018 43 289 1.0 4.0 0.00 0.00 0.00 74 1016.0
20260504045507 43 309 2.0 4.0 0.00 0.00 0.00 74 1016.0
20260504045006 43 306 1.0 2.0 0.00 0.00 0.00 74 1016.0
20260504044524 43 306 1.0 2.0 0.00 0.00 0.00 74 1015.9
20260504044006 43 306 1.0 2.0 0.00 0.00 0.00 73 1015.9
20260504043510 43 306 0.0 1.0 0.00 0.00 0.00 73 1015.8
20260504043024 44 306 0.0 0.0 0.00 0.00 0.00 72 1015.8
20260504042510 44 306 0.0 0.0 0.00 0.00 0.00 71 1015.8
20260504042011 44 306 0.0 0.0 0.00 0.00 0.00 71 1015.9
20260504041539 44 306 0.0 1.0 0.00 0.00 0.00 71 1015.9
20260504041003 44 306 0.0 1.0 0.00 0.00 0.00 71 1015.9
20260504040509 44 306 0.0 1.0 0.00 0.00 0.00 72 1016.0
20260504040021 44 306 0.0 2.0 0.00 0.00 0.00 72 1015.9
20260504035507 44 306 0.0 3.0 0.00 0.00 0.00 72 1015.9
20260504035008 44 306 1.0 3.0 0.00 0.00 0.00 70 1016.0
20260504034523 44 273 0.0 3.0 0.00 0.00 0.00 69 1016.0
20260504034007 44 273 1.0 3.0 0.00 0.00 0.00 68 1015.8
20260504033506 44 301 1.0 3.0 0.00 0.00 0.00 68 1016.0
20260504033024 44 288 0.0 2.0 0.00 0.00 0.00 71 1015.8
20260504032509 44 322 0.0 4.0 0.00 0.00 0.00 72 1015.8
20260504032011 44 322 1.0 4.0 0.00 0.00 0.00 70 1015.8
20260504031526 44 279 2.0 3.0 0.00 0.00 0.00 67 1016.0
20260504031009 44 268 1.0 3.0 0.00 0.00 0.00 68 1016.0
20260504030509 44 248 0.0 3.0 0.00 0.00 0.00 68 1016.0
20260504030034 45 268 1.0 3.0 0.00 0.00 0.00 68 1016.0
20260504025507 45 282 1.0 4.0 0.00 0.00 0.00 67 1015.9
20260504025007 45 292 2.0 4.0 0.00 0.00 0.00 66 1016.0
20260504024519 45 298 2.0 4.0 0.00 0.00 0.00 68 1016.0
20260504024006 45 292 1.0 2.0 0.00 0.00 0.00 66 1016.0
20260504023506 45 284 1.0 3.0 0.00 0.00 0.00 66 1016.0
20260504023022 45 284 1.0 3.0 0.00 0.00 0.00 67 1016.1
20260504022507 45 308 0.0 4.0 0.00 0.00 0.00 67 1016.1
20260504022009 45 308 1.0 4.0 0.00 0.00 0.00 68 1016.1
20260504021527 46 321 2.0 3.0 0.00 0.00 0.00 66 1016.1
20260504021007 46 306 2.0 3.0 0.00 0.00 0.00 64 1016.2
20260504020510 46 294 1.0 3.0 0.00 0.00 0.00 64 1016.2
20260504020036 46 296 0.0 2.0 0.00 0.00 0.00 65 1016.2
20260504015509 46 294 0.0 1.0 0.00 0.00 0.00 63 1016.2
20260504015010 46 294 0.0 2.0 0.00 0.00 0.00 64 1016.1
20260504014530 46 294 1.0 2.0 0.00 0.00 0.00 62 1016.1
20260504014010 46 289 0.0 3.0 0.00 0.00 0.00 60 1016.1
20260504013511 46 276 1.0 4.0 0.00 0.00 0.00 61 1016.1
20260504013024 46 268 1.0 4.0 0.00 0.00 0.00 60 1016.0
20260504012510 46 257 1.0 4.0 0.00 0.00 0.00 60 1016.0
20260504012011 46 298 2.0 4.0 0.00 0.00 0.00 60 1016.0
20260504011503 46 298 1.0 3.0 0.00 0.00 0.00 60 1015.8
20260504011002 46 277 1.0 3.0 0.00 0.00 0.00 59 1015.7
20260504010502 46 268 1.0 3.0 0.00 0.00 0.00 58 1015.7
20260504010010 46 298 1.0 7.0 0.00 0.00 0.00 58 1015.7
20260504005503 46 300 1.0 7.0 0.00 0.00 0.00 55 1015.6
20260504005003 47 266 2.0 6.0 0.00 0.00 0.00 56 1015.6
20260504004514 46 306 2.0 4.0 0.00 0.00 0.00 57 1015.5
20260504004007 47 296 0.0 0.0 0.00 0.00 0.00 58 1015.4
20260504003508 47 296 0.0 0.0 0.00 0.00 0.00 56 1015.3
20260504003019 48 296 0.0 0.0 0.00 0.00 0.00 56 1015.4
20260504002508 48 296 0.0 2.0 0.00 0.00 0.00 54 1015.4
20260504002008 49 296 0.0 4.0 0.00 0.00 0.00 54 1015.4
20260504001525 49 297 1.0 4.0 0.00 0.00 0.00 48 1015.5
20260504001008 50 301 2.0 7.0 0.00 0.00 0.00 47 1015.5
20260504000507 51 306 1.0 7.0 0.00 0.00 0.00 45 1015.4
20260504000004 51 320 1.0 7.0 0.00 0.00 0.00 45 1015.4
20260503235503 51 261 1.0 5.0 0.00 0.00 0.00 42 1015.3
20260503235003 51 287 2.0 8.0 0.00 0.00 0.00 40 1015.3
20260503234508 52 334 3.0 8.0 0.00 0.00 0.00 40 1015.3
20260503234004 52 313 3.0 8.0 0.00 0.00 0.00 39 1015.4
20260503233503 53 319 2.0 13.0 0.00 0.00 0.00 39 1015.3
20260503233018 53 281 4.0 13.0 0.00 0.00 0.00 38 1015.4
20260503232504 54 308 7.0 13.0 0.00 0.00 0.00 37 1015.4
20260503232010 54 329 3.0 13.0 0.00 0.00 0.00 37 1015.4
20260503231518 54 284 4.0 13.0 0.00 0.00 0.00 36 1015.4
20260503231007 55 304 3.0 8.0 0.00 0.00 0.00 36 1015.4
20260503230509 55 338 2.0 10.0 0.00 0.00 0.00 35 1015.3
20260503230036 54 281 4.0 14.0 0.00 0.00 0.00 35 1015.3
20260503225507 54 265 5.0 18.0 0.00 0.00 0.00 36 1015.4
20260503225007 54 328 11.0 18.0 0.00 0.00 0.00 36 1015.4
20260503224526 54 333 5.0 12.0 0.00 0.00 0.00 36 1015.4
20260503224005 54 299 4.0 12.0 0.00 0.00 0.00 36 1015.4
20260503223503 55 285 7.0 13.0 0.00 0.00 0.00 37 1015.4
20260503223008 54 299 4.0 14.0 0.00 0.00 0.00 35 1015.4
20260503222503 55 317 10.0 14.0 0.00 0.00 0.00 37 1015.4
20260503222007 55 296 4.0 12.0 0.00 0.00 0.00 37 1015.4
20260503221515 55 320 5.0 12.0 0.00 0.00 0.00 34 1015.3
20260503221008 55 318 7.0 12.0 0.00 0.00 0.00 35 1015.3
20260503220506 55 317 5.0 13.0 0.00 0.00 0.00 35 1015.2
20260503220021 55 333 4.0 13.0 0.00 0.00 0.00 35 1015.2
20260503215507 55 272 4.0 14.0 0.00 0.00 0.00 35 1015.2
20260503215007 55 336 5.0 14.0 0.00 0.00 0.00 35 1015.2
20260503214536 55 331 8.0 13.0 0.00 0.00 0.00 36 1015.1
20260503214010 55 330 2.0 7.0 0.00 0.00 0.00 34 1015.2
20260503213507 55 257 2.0 13.0 0.00 0.00 0.00 34 1015.3
20260503213027 54 331 5.0 15.0 0.00 0.00 0.00 34 1015.4
20260503212504 55 271 9.0 15.0 0.00 0.00 0.00 33 1015.4
20260503212006 55 294 4.0 15.0 0.00 0.00 0.00 36 1015.4
20260503211511 55 316 6.0 16.0 0.00 0.00 0.00 37 1015.4
20260503211005 55 311 9.0 16.0 0.00 0.00 0.00 36 1015.4
20260503210507 55 338 7.0 14.0 0.00 0.00 0.00 36 1015.5
20260503210017 55 330 7.0 14.0 0.00 0.00 0.00 36 1015.6
20260503205507 54 15 1.0 13.0 0.00 0.00 0.00 34 1015.7
20260503205010 54 306 5.0 15.0 0.00 0.00 0.00 38 1015.8
20260503204520 54 282 7.0 15.0 0.00 0.00 0.00 35 1015.9
20260503204008 54 293 4.0 12.0 0.00 0.00 0.00 34 1015.7
20260503203505 53 327 5.0 19.0 0.00 0.00 0.00 37 1016.0
20260503203033 53 320 11.0 19.0 0.00 0.00 0.00 36 1016.0
20260503202511 54 319 11.0 19.0 0.00 0.00 0.00 34 1016.0
20260503202015 54 304 9.0 19.0 0.00 0.00 0.00 37 1016.1
20260503201528 54 296 5.0 13.0 0.00 0.00 0.00 35 1016.1
20260503201010 54 303 5.0 13.0 0.00 0.00 0.00 35 1016.3
20260503200509 54 270 7.0 12.0 0.00 0.00 0.00 35 1016.3
20260503200016 54 263 5.0 11.0 0.00 0.00 0.00 38 1016.3
20260503195505 54 5 5.0 14.0 0.00 0.00 0.00 40 1016.3
20260503195008 54 229 5.0 14.0 0.00 0.00 0.00 35 1016.4
20260503194522 54 339 5.0 12.0 0.00 0.00 0.00 39 1016.6
20260503194011 53 185 6.0 14.0 0.00 0.00 0.00 36 1016.7
20260503193508 53 340 7.0 14.0 0.00 0.00 0.00 34 1016.7
20260503193036 53 342 6.0 17.0 0.00 0.00 0.00 39 1016.7
20260503192508 53 348 9.0 18.0 0.00 0.00 0.00 40 1016.9
20260503192009 53 283 8.0 18.0 0.00 0.00 0.00 36 1016.8
20260503191559 53 257 2.0 11.0 0.00 0.00 0.00 35 1016.8
20260503191010 53 319 7.0 15.0 0.00 0.00 0.00 36 1016.9
20260503190508 52 273 4.0 17.0 0.00 0.00 0.00 37 1016.9
20260503190003 53 283 10.0 17.0 0.00 0.00 0.00 36 1016.9
20260503185502 53 195 2.0 12.0 0.00 0.00 0.00 36 1017.0
20260503185002 53 324 5.0 12.0 0.00 0.00 0.00 39 1017.1
20260503184504 52 233 2.0 14.0 0.00 0.00 0.00 43 1017.1
20260503184003 52 294 5.0 14.0 0.00 0.00 0.00 37 1017.1
20260503183505 52 326 7.0 14.0 0.00 0.00 0.00 41 1017.1
20260503183005 51 352 5.0 14.0 0.00 0.00 0.00 43 1017.3
20260503182502 51 274 6.0 14.0 0.00 0.00 0.00 40 1017.3
20260503182004 51 303 3.0 14.0 0.00 0.00 0.00 39 1017.4
20260503181507 51 223 5.0 13.0 0.00 0.00 0.00 37 1017.5
20260503181003 52 288 3.0 12.0 0.00 0.00 0.00 39 1017.5
20260503180503 51 294 3.0 16.0 0.00 0.00 0.00 40 1017.6
20260503180007 51 256 6.0 16.0 0.00 0.00 0.00 39 1017.7
20260503175502 51 270 7.0 14.0 0.00 0.00 0.00 42 1017.9
20260503175002 51 326 7.0 14.0 0.00 0.00 0.00 42 1017.8
20260503174503 50 15 6.0 12.0 0.00 0.00 0.00 41 1017.8
20260503174003 50 304 8.0 14.0 0.00 0.00 0.00 40 1017.8
20260503173503 49 283 3.0 14.0 0.00 0.00 0.00 39 1017.8
20260503173007 49 271 1.0 12.0 0.00 0.00 0.00 39 1017.8
20260503172502 49 308 4.0 17.0 0.00 0.00 0.00 42 1018.0
20260503172002 49 277 9.0 17.0 0.00 0.00 0.00 41 1018.0
20260503171505 49 332 10.0 16.0 0.00 0.00 0.00 46 1017.9
20260503171002 49 333 4.0 12.0 0.00 0.00 0.00 42 1018.0
20260503170502 49 344 6.0 12.0 0.00 0.00 0.00 40 1018.1
20260503151007 43 325 6.0 16.0 0.00 0.00 0.00 48 1019.4
20260503150503 44 307 6.0 16.0 0.00 0.00 0.00 48 1019.3
20260503131006 39 296 2.0 15.0 0.00 0.00 0.00 65 1018.8
20260503130507 39 337 8.0 15.0 0.00 0.00 0.00 64 1018.8
20260503110508 33 206 0.0 1.0 0.00 0.00 0.00 86 1017.9
20260503090507 35 323 2.0 7.0 0.00 0.00 0.00 81 1016.6
20260503081532 36 262 4.0 10.0 0.00 0.00 0.00 81 1016.4
20260503081008 36 311 6.0 10.0 0.00 0.00 0.00 81 1016.4
20260503080510 36 335 2.0 9.0 0.00 0.00 0.00 82 1016.3
20260503072512 36 298 2.0 8.0 0.00 0.00 0.00 80 1016.1
20260503072006 36 271 2.0 9.0 0.00 0.00 0.00 80 1016.0
20260503071521 36 269 3.0 9.0 0.00 0.00 0.00 79 1015.9
20260503071006 36 315 4.0 8.0 0.00 0.00 0.00 79 1015.8
20260503070509 36 263 4.0 11.0 0.00 0.00 0.00 79 1015.7
20260503055006 37 303 2.0 5.0 0.00 0.00 0.00 78 1015.7